METEOR 1-5 DEB

Satellite information

Favourite Embed

Satellite Type and Status

DEBRISIN ORBIT

Key statistics

Satellite METEOR 1-5 DEB at a glance.

Uptime

20263

Days in orbit

Revolutions

≈ 14.3

Per day

Orbit

LEO

Low Earth Orbit

Inclination

81.2

Latest

Satellite identification and parameters

Extended collection of information and parameters for METEOR 1-5 DEB.

Object identification

Identified? True

Debris? True

Object name: METEOR 1-5 DEB

International designator: 1970-047E

Object number (NORAD): 58398

Object ID (CCSDS): 58398

Country: COMMONWEALTH OF INDEPENDENT STATES (CIS)

Current information (Y/N): Y

RCS size: SMALL

Orbital parameters

Period: 100.78 minutes

Inclination: 81.2081 deg

SMA: 7173.702 km

Apoapsis: 834.937 km

Periapsis: 756.197 km

RAAN: 50.7073 deg

Eccentricy: 0.00548813

Argument of periapsis: 218.223 deg

Mean anomaly: 141.5055 deg

Mean motion: 14.28853702 rev/day

Mean motion (dot): 0.00008672 rev/day2

B* drag term: 0.0033770867 1/REarth

Two-line elements (TLE)

Creation date: Dec. 12, 2025, 10:14 a.m.

Reference frame: TEME

Reference center: EARTH

Epoch: Dec. 12, 2025, 5:37 a.m. UTC

TLE line 0: 0 METEOR 1-5 DEB

TLE line 1: 1 58398U 70047E 25346.23405845 .00008672 00000-0 33771-2 0 9998

TLE line 2: 2 58398 81.2081 50.7073 0054881 218.2230 141.5055 14.28853702110150

Live tracking on map

Real-time ground track for satellite METEOR 1-5 DEB.

In-orbit conjunctions

A list of the most updated potential collisions computed for object METEOR 1-5 DEB.

Target Orbit TCA Probability of collision Miss distance Type
COSMOS 1331 LEO 2025-12-08 03:47:35 0.0001029402 245.0 (m) PAYLOAD
NOAA 17 DEB SSO 2025-05-16 07:21:44 0.0001130763 169.0 (m) DEBRIS
CZ-6A DEB SSO 2025-04-19 10:36:51 0.0001346896 235.0 (m) DEBRIS
DMSP 5D-2 F13 DEB SSO 2025-02-19 16:03:30 0.0001207528 114.0 (m) DEBRIS
CZ-6A DEB LEO 2024-12-19 08:57:27 0.001595228 72.0 (m) DEBRIS

Associated space launch

The Meteor-1 series was the first series of Soviet meteorological satellites.

METEOR 1-5 DEB was lifted into orbit during the mission ‘Vostok 8A92M | Meteor-1 5 (17L)’, on board a Vostok 8A92M space rocket.

The launch took place on June 23, 1970, 2:15 p.m. from 41/1.

For more information about the launch, click the button.

Launch to space Vostok 8A92M | Meteor-1 5 (17L)
Vostok 8A92M | Meteor-1 5 (17L)

Agency: N/A

Status: Launch Successful

Launch date: June 23, 1970, 2:15 p.m. UTC

Rocket: Vostok 8A92M

Launch pad: 41/1

Location: Plesetsk Cosmodrome, Russian Federation

...

Latest news about this satellite

There are no fresh news available about this satellite. Check back as we update our databases every day.


Newsletter sign-up

Weekly statistics, charts and insights to help you stay on top of the space industry.